TimeEDT,TemperatureF,Dew PointF,Humidity,Sea Level PressureIn,VisibilityMPH,Wind Direction,Wind SpeedMPH,Gust SpeedMPH,PrecipitationIn,Events,Conditions,WindDirDegrees,DateUTC
12:53 AM,37.0,10.0,33,29.92,10.0,NW,12.7,23.0,N/A,,Clear,320,2013-04-02 04:53:00
1:53 AM,36.0,10.9,36,29.93,10.0,NW,10.4,-,N/A,,Clear,320,2013-04-02 05:53:00
2:53 AM,34.0,12.0,40,29.93,10.0,NW,6.9,-,N/A,,Clear,310,2013-04-02 06:53:00
3:53 AM,34.0,10.9,38,29.94,10.0,NW,4.6,-,N/A,,Clear,310,2013-04-02 07:53:00
4:53 AM,33.1,12.0,42,29.94,10.0,WNW,6.9,-,N/A,,Clear,290,2013-04-02 08:53:00
5:53 AM,32.0,12.9,45,29.96,10.0,WNW,4.6,-,N/A,,Clear,290,2013-04-02 09:53:00
6:53 AM,33.1,14.0,46,29.98,10.0,NW,5.8,-,N/A,,Clear,310,2013-04-02 10:53:00
7:53 AM,34.0,14.0,44,30.00,10.0,NW,10.4,18.4,N/A,,Clear,310,2013-04-02 11:53:00
8:53 AM,36.0,14.0,41,30.01,10.0,WNW,9.2,20.7,N/A,,Clear,300,2013-04-02 12:53:00
9:53 AM,37.0,12.9,37,30.01,10.0,WNW,17.3,28.8,N/A,,Partly Cloudy,290,2013-04-02 13:53:00
10:53 AM,37.9,12.9,36,30.00,10.0,West,12.7,23.0,N/A,,Scattered Clouds,280,2013-04-02 14:53:00
11:53 AM,39.0,12.0,33,29.99,10.0,WNW,17.3,25.3,N/A,,Partly Cloudy,290,2013-04-02 15:53:00
12:53 PM,41.0,10.9,29,29.99,10.0,West,13.8,25.3,N/A,,Mostly Cloudy,280,2013-04-02 16:53:00
1:53 PM,43.0,9.0,25,29.97,10.0,NW,15.0,25.3,N/A,,Scattered Clouds,310,2013-04-02 17:53:00
2:53 PM,41.0,9.0,27,29.96,10.0,WNW,15.0,27.6,N/A,,Mostly Cloudy,290,2013-04-02 18:53:00
3:53 PM,43.0,9.0,25,29.95,10.0,WNW,10.4,24.2,N/A,,Partly Cloudy,290,2013-04-02 19:53:00
4:53 PM,44.1,9.0,24,29.95,10.0,West,20.7,27.6,N/A,,Mostly Cloudy,280,2013-04-02 20:53:00
5:53 PM,42.1,7.0,24,29.97,10.0,WNW,18.4,28.8,N/A,,Clear,300,2013-04-02 21:53:00
6:53 PM,42.1,7.0,24,29.99,10.0,WNW,16.1,28.8,N/A,,Partly Cloudy,290,2013-04-02 22:53:00
7:53 PM,41.0,7.0,25,30.01,10.0,WNW,12.7,20.7,N/A,,Clear,300,2013-04-02 23:53:00
9:53 PM,39.0,10.0,30,30.05,10.0,NW,6.9,-,N/A,,Clear,310,2013-04-03 01:53:00
10:53 PM,37.9,10.9,33,30.06,10.0,WNW,8.1,-,N/A,,Clear,300,2013-04-03 02:53:00
11:53 PM,37.0,10.9,34,30.08,10.0,NNW,11.5,-,N/A,,Scattered Clouds,330,2013-04-03 03:53:00